TimePST,TemperatureF,Dew PointF,Humidity,Sea Level PressureIn,VisibilityMPH,Wind Direction,Wind SpeedMPH,Gust SpeedMPH,PrecipitationIn,Events,Conditions,WindDirDegrees,DateUTC
12:05 AM,42.1,41.0,96,29.99,1.8,Calm,Calm,-,0.01,Rain,Light Rain,0,2014-01-08 08:05:00
12:10 AM,42.1,41.0,96,29.99,3.0,Calm,Calm,-,0.01,Rain,Light Rain,0,2014-01-08 08:10:00
12:36 AM,42.1,41.0,96,29.99,2.0,Calm,Calm,-,0.01,,Overcast,0,2014-01-08 08:36:00
12:53 AM,42.1,41.0,96,30.00,2.0,Calm,Calm,-,0.01,,Overcast,0,2014-01-08 08:53:00
1:14 AM,42.1,41.0,96,29.99,1.8,Calm,Calm,-,0.00,,Overcast,0,2014-01-08 09:14:00
1:27 AM,42.1,41.0,96,29.99,3.0,Calm,Calm,-,0.01,Rain,Light Rain,0,2014-01-08 09:27:00
1:48 AM,42.8,41.0,93,29.99,4.0,Calm,Calm,-,0.01,,Overcast,0,2014-01-08 09:48:00
1:53 AM,42.1,41.0,96,30.00,5.0,Calm,Calm,-,0.01,,Overcast,0,2014-01-08 09:53:00
2:10 AM,42.1,41.0,96,29.99,4.0,Calm,Calm,-,N/A,,Overcast,0,2014-01-08 10:10:00
2:24 AM,42.1,41.0,96,29.99,1.8,Calm,Calm,-,0.00,Rain,Light Rain,0,2014-01-08 10:24:00
2:38 AM,42.1,41.0,96,29.99,1.8,Calm,Calm,-,0.01,Rain,Light Rain,0,2014-01-08 10:38:00
2:53 AM,42.1,41.0,96,30.00,2.0,Calm,Calm,-,0.02,Rain,Light Rain,0,2014-01-08 10:53:00
3:35 AM,42.1,41.0,96,29.97,2.5,Calm,Calm,-,0.00,,Mostly Cloudy,0,2014-01-08 11:35:00
3:40 AM,42.1,41.0,96,29.97,1.5,Calm,Calm,-,0.00,,Mostly Cloudy,0,2014-01-08 11:40:00
3:53 AM,42.1,41.0,96,29.98,1.0,Calm,Calm,-,0.00,,Overcast,0,2014-01-08 11:53:00
4:08 AM,42.1,41.0,96,29.97,1.2,Calm,Calm,-,N/A,,Overcast,0,2014-01-08 12:08:00
4:23 AM,42.1,41.0,96,29.97,0.8,Calm,Calm,-,N/A,,Overcast,0,2014-01-08 12:23:00
4:31 AM,42.1,41.0,96,29.96,0.8,Calm,Calm,-,N/A,,Overcast,0,2014-01-08 12:31:00
4:53 AM,42.1,41.0,96,29.98,1.2,South,3.5,-,N/A,,Overcast,180,2014-01-08 12:53:00
5:38 AM,45.0,43.0,93,29.95,10.0,SSW,6.9,-,N/A,,Overcast,210,2014-01-08 13:38:00
5:53 AM,45.0,43.0,93,29.96,10.0,SSW,10.4,-,N/A,,Overcast,200,2014-01-08 13:53:00
6:53 AM,45.0,43.0,93,29.94,9.0,SSW,8.1,-,N/A,,Overcast,200,2014-01-08 14:53:00
7:53 AM,45.0,43.0,93,29.91,10.0,SSE,3.5,-,0.00,Rain,Light Rain,150,2014-01-08 15:53:00
8:53 AM,45.0,44.1,97,29.91,6.0,ESE,4.6,-,0.01,Rain,Light Rain,120,2014-01-08 16:53:00
9:25 AM,45.0,43.0,93,29.90,2.5,Calm,Calm,-,0.03,Rain,Light Rain,0,2014-01-08 17:25:00
9:33 AM,44.1,43.0,96,29.89,3.0,Calm,Calm,-,0.03,Rain,Light Rain,0,2014-01-08 17:33:00
9:49 AM,44.6,44.6,100,29.89,4.0,Calm,Calm,-,0.03,Rain,Light Rain,0,2014-01-08 17:49:00
9:53 AM,45.0,44.1,97,29.90,4.0,Calm,Calm,-,0.03,Rain,Light Rain,0,2014-01-08 17:53:00
10:53 AM,46.0,44.1,93,29.87,4.0,Calm,Calm,-,0.02,Rain,Light Rain,0,2014-01-08 18:53:00
12:00 PM,46.0,45.0,96,29.82,2.0,Calm,Calm,-,0.00,Rain,Light Rain,0,2014-01-08 20:00:00
12:15 PM,46.0,44.1,93,29.80,4.0,Calm,Calm,-,0.02,Rain,Light Rain,0,2014-01-08 20:15:00
12:38 PM,46.0,44.1,93,29.78,8.0,Calm,Calm,-,0.03,Rain,Light Rain,0,2014-01-08 20:38:00
12:53 PM,46.0,44.1,93,29.78,5.0,SE,4.6,-,0.03,Rain,Light Rain,130,2014-01-08 20:53:00
1:08 PM,46.0,44.1,93,29.75,4.0,Variable,5.8,-,0.03,Rain,Light Rain,0,2014-01-08 21:08:00
1:53 PM,46.9,44.1,90,29.73,6.0,South,11.5,-,0.07,Rain,Light Rain,180,2014-01-08 21:53:00
2:35 PM,46.9,45.0,93,29.69,2.5,South,5.8,-,0.06,Rain,Rain,180,2014-01-08 22:35:00
2:48 PM,46.4,44.6,93,29.69,4.0,South,6.9,-,0.09,Rain,Light Rain,170,2014-01-08 22:48:00
2:53 PM,46.9,45.0,93,29.71,4.0,South,10.4,-,0.10,Rain,Light Rain,180,2014-01-08 22:53:00
3:01 PM,46.9,44.1,90,29.71,1.8,WSW,13.8,24.2,0.03,Rain,Heavy Rain,250,2014-01-08 23:01:00
3:19 PM,44.1,41.0,89,29.70,1.8,SW,4.6,-,0.14,Rain,Rain,230,2014-01-08 23:19:00
3:32 PM,45.0,43.0,93,29.69,3.0,Calm,Calm,-,0.17,Rain,Light Rain,0,2014-01-08 23:32:00
3:53 PM,45.0,43.0,93,29.69,10.0,SSE,3.5,-,0.17,Rain,Light Rain,160,2014-01-08 23:53:00
4:25 PM,46.9,44.1,90,29.68,4.0,SSW,17.3,25.3,0.05,Rain,Rain,200,2014-01-09 00:25:00
4:53 PM,46.9,44.1,90,29.69,5.0,SSW,16.1,-,0.12,Rain,Rain,200,2014-01-09 00:53:00
5:02 PM,46.9,44.1,90,29.68,5.0,SW,17.3,29.9,0.00,Rain,Light Rain,220,2014-01-09 01:02:00
5:35 PM,46.9,44.1,90,29.68,10.0,SW,15.0,-,0.01,Rain,Light Rain,220,2014-01-09 01:35:00
5:53 PM,46.9,44.1,90,29.70,5.0,SW,18.4,28.8,0.02,Rain,Rain,220,2014-01-09 01:53:00
6:03 PM,46.0,43.0,89,29.69,4.0,SW,18.4,29.9,0.04,Rain,Rain,230,2014-01-09 02:03:00
6:53 PM,46.0,43.0,89,29.70,10.0,SW,15.0,25.3,0.05,Rain,Light Rain,220,2014-01-09 02:53:00
7:53 PM,46.0,43.0,89,29.72,10.0,SW,15.0,21.9,0.00,Rain,Light Rain,230,2014-01-09 03:53:00
8:53 PM,44.1,41.0,89,29.75,10.0,SW,13.8,-,0.00,,Partly Cloudy,230,2014-01-09 04:53:00
9:53 PM,44.1,39.0,82,29.77,10.0,WSW,17.3,29.9,N/A,,Clear,240,2014-01-09 05:53:00
10:53 PM,43.0,37.9,82,29.83,10.0,WSW,16.1,24.2,N/A,,Clear,240,2014-01-09 06:53:00
11:53 PM,42.1,37.9,85,29.87,9.0,WSW,11.5,-,N/A,,Mostly Cloudy,240,2014-01-09 07:53:00